Location: Unspecified
(0.0000°N, 0.0000°E)
Time: 14:17:14
(UTC+00:00)

Transit 2A - All Passes

Search period start: 29 May 2015 00:00
Search period end: 08 June 2015 00:00
Orbit: 593 x 967 km, 66.7° (Epoch: 28 May)

Date Brightness Start Highest point End Pass type
(mag) Time Alt. Az. Time Alt. Az. Time Alt. Az.
29 May - 09:28:10 10° NW 09:32:41 48° WSW 09:36:54 10° S daylight
29 May - 20:18:07 10° S 20:23:16 33° ESE 20:28:51 10° NE night (unlit)
29 May - 22:01:52 10° WSW 22:06:31 22° WNW 22:11:06 10° NNW night (unlit)
30 May - 08:54:13 10° NNW 08:58:56 90° WSW 09:03:19 10° SSE daylight
30 May - 19:45:18 10° SSE 19:49:27 21° ESE 19:54:04 10° ENE night (unlit)
30 May - 21:27:11 10° SW 21:32:37 35° WNW 21:38:13 10° N night (unlit)
31 May - 08:20:36 10° N 08:25:09 48° ENE 08:29:24 10° SE daylight
31 May - 19:13:28 10° SE 19:15:35 12° ESE 19:18:16 10° E night (unlit)
31 May - 20:52:57 10° SSW 20:58:46 55° WNW 21:04:55 10° N visible
01 Jun - 07:47:23 10° N 07:51:18 27° ENE 07:55:05 10° SE daylight
01 Jun - 09:32:19 10° W 09:34:19 12° WSW 09:35:58 10° SW daylight
01 Jun - 20:19:00 10° SSW 20:24:57 86° WNW 20:31:18 10° NNE visible
02 Jun - 07:14:47 10° NNE 07:17:23 15° ENE 07:20:08 10° ESE daylight
02 Jun - 08:56:52 10° WNW 09:00:29 22° WSW 09:03:50 10° SSW daylight
02 Jun - 19:45:21 10° S 19:51:10 60° ESE 19:57:24 10° NNE visible
02 Jun - 21:32:23 10° W 21:34:40 12° WNW 21:36:25 10° NW visible
03 Jun - 08:22:22 10° NW 08:26:43 40° WSW 08:30:47 10° S daylight
03 Jun - 19:11:59 10° S 19:17:23 38° ESE 19:23:12 10° NE visible
03 Jun - 20:56:19 10° WSW 21:00:41 19° WNW 21:04:52 10° NNW visible
04 Jun - 07:48:19 10° NNW 07:52:57 75° WSW 07:57:17 10° SSE daylight
04 Jun - 18:39:00 10° SSE 18:43:35 24° ESE 18:48:35 10° ENE visible
04 Jun - 20:21:28 10° SW 20:26:46 30° WNW 20:32:08 10° N visible
05 Jun - 07:14:36 10° N 07:19:10 58° ENE 07:23:28 10° SSE daylight
05 Jun - 18:06:43 10° SE 18:09:43 15° ESE 18:13:14 10° ENE daylight
05 Jun - 19:47:06 10° SW 19:52:54 48° WNW 19:58:56 10° N visible
06 Jun - 06:41:16 10° N 06:45:21 31° ENE 06:49:17 10° SE daylight
06 Jun - 19:13:05 10° SSW 19:19:04 76° WNW 19:25:25 10° NNE visible
07 Jun - 06:08:25 10° NNE 06:11:27 18° ENE 06:14:33 10° ESE daylight
07 Jun - 07:51:18 10° WNW 07:54:31 18° WSW 07:57:29 10° SSW daylight
07 Jun - 18:39:20 10° SSW 18:45:17 70° ESE 18:51:36 10° NNE visible
